Year,Month,Day,Hour,Minute,Value (Times are PST for temperature in C)
2015,05,22,00,00,16.60
2015,05,22,00,01,16.60
2015,05,22,00,02,16.60
2015,05,22,00,03,16.50
2015,05,22,00,04,16.50
2015,05,22,00,05,16.40
2015,05,22,00,06,16.40
2015,05,22,00,07,16.40
2015,05,22,00,08,16.40
2015,05,22,00,09,16.40
2015,05,22,00,10,16.40
2015,05,22,00,11,16.40
2015,05,22,00,12,16.40
2015,05,22,00,13,16.40
2015,05,22,00,14,16.40
2015,05,22,00,15,16.40
2015,05,22,00,16,16.40
2015,05,22,00,17,16.40
2015,05,22,00,18,16.40
2015,05,22,00,19,16.50
2015,05,22,00,20,16.50
2015,05,22,00,21,16.60
2015,05,22,00,22,16.60
2015,05,22,00,23,16.60
2015,05,22,00,24,16.70
2015,05,22,00,25,16.70
2015,05,22,00,26,16.70
2015,05,22,00,27,16.70
2015,05,22,00,28,16.70
2015,05,22,00,29,16.70
2015,05,22,00,30,16.70
2015,05,22,00,31,16.80
2015,05,22,00,32,16.70
2015,05,22,00,33,16.70
2015,05,22,00,34,16.70
2015,05,22,00,35,16.70
2015,05,22,00,36,16.70
2015,05,22,00,37,16.70
2015,05,22,00,38,16.70
2015,05,22,00,39,16.70
2015,05,22,00,40,16.70
2015,05,22,00,41,16.60
2015,05,22,00,42,16.60
2015,05,22,00,43,16.60
2015,05,22,00,44,16.50
2015,05,22,00,45,16.50
2015,05,22,00,46,16.40
2015,05,22,00,47,16.40
2015,05,22,00,48,16.40
2015,05,22,00,49,16.40
2015,05,22,00,50,16.30
2015,05,22,00,51,16.30
2015,05,22,00,52,16.30
2015,05,22,00,53,16.20
2015,05,22,00,54,16.20
2015,05,22,00,55,16.20
2015,05,22,00,56,16.10
2015,05,22,00,57,16.10
2015,05,22,00,58,16.10
2015,05,22,00,59,16.10
2015,05,22,01,00,16.00
2015,05,22,01,01,16.00
2015,05,22,01,02,16.00
2015,05,22,01,03,16.00
2015,05,22,01,04,15.90
2015,05,22,01,05,15.90
2015,05,22,01,06,15.90
2015,05,22,01,07,15.90
2015,05,22,01,08,15.90
2015,05,22,01,09,15.90
2015,05,22,01,10,15.90
2015,05,22,01,11,15.90
2015,05,22,01,12,15.90
2015,05,22,01,13,15.90
2015,05,22,01,14,15.80
2015,05,22,01,15,15.80
2015,05,22,01,16,15.80
2015,05,22,01,17,15.80
2015,05,22,01,18,15.80
2015,05,22,01,19,15.80
2015,05,22,01,20,15.80
2015,05,22,01,21,15.70
2015,05,22,01,22,15.70
2015,05,22,01,23,15.70
2015,05,22,01,24,15.70
2015,05,22,01,25,15.70
2015,05,22,01,26,15.70
2015,05,22,01,27,15.70
2015,05,22,01,28,15.60
2015,05,22,01,29,15.60
2015,05,22,01,30,15.60
2015,05,22,01,31,15.60
2015,05,22,01,32,15.60
2015,05,22,01,33,15.60
2015,05,22,01,34,15.60
2015,05,22,01,35,15.60
2015,05,22,01,36,15.60
2015,05,22,01,37,15.60
2015,05,22,01,38,15.60
2015,05,22,01,39,15.50
2015,05,22,01,40,15.50
2015,05,22,01,41,15.50
2015,05,22,01,42,15.50
2015,05,22,01,43,15.50
2015,05,22,01,44,15.50
2015,05,22,01,45,15.40
2015,05,22,01,46,15.40
2015,05,22,01,47,15.40
2015,05,22,01,48,15.40
2015,05,22,01,49,15.40
2015,05,22,01,50,15.40
2015,05,22,01,51,15.50
2015,05,22,01,52,15.40
2015,05,22,01,53,15.40
2015,05,22,01,54,15.40
2015,05,22,01,55,15.50
2015,05,22,01,56,15.50
2015,05,22,01,57,15.50
2015,05,22,01,58,15.50
2015,05,22,01,59,15.50
2015,05,22,02,00,15.50
2015,05,22,02,01,15.50
2015,05,22,02,02,15.50
2015,05,22,02,03,15.50
2015,05,22,02,04,15.50
2015,05,22,02,05,15.50
2015,05,22,02,06,15.50
2015,05,22,02,07,15.50
2015,05,22,02,08,15.50
2015,05,22,02,09,15.50
2015,05,22,02,10,15.50
2015,05,22,02,11,15.50
2015,05,22,02,12,15.50
2015,05,22,02,13,15.50
2015,05,22,02,14,15.60
2015,05,22,02,15,15.60
2015,05,22,02,16,15.60
2015,05,22,02,17,15.60
2015,05,22,02,18,15.60
2015,05,22,02,19,15.60
2015,05,22,02,20,15.60
2015,05,22,02,21,15.60
2015,05,22,02,22,15.60
2015,05,22,02,23,15.60
2015,05,22,02,24,15.60
2015,05,22,02,25,15.60
2015,05,22,02,26,15.60
2015,05,22,02,27,15.70
2015,05,22,02,28,15.70
2015,05,22,02,29,15.70
2015,05,22,02,30,15.70
2015,05,22,02,31,15.70
2015,05,22,02,32,15.80
2015,05,22,02,33,15.80
2015,05,22,02,34,15.80
2015,05,22,02,35,15.90
2015,05,22,02,36,15.90
2015,05,22,02,37,16.00
2015,05,22,02,38,16.00
2015,05,22,02,39,16.00
2015,05,22,02,40,16.10
2015,05,22,02,41,16.10
2015,05,22,02,42,16.20
2015,05,22,02,43,16.20
2015,05,22,02,44,16.30
2015,05,22,02,45,16.30
2015,05,22,02,46,16.30
2015,05,22,02,47,16.40
2015,05,22,02,48,16.40
2015,05,22,02,49,16.40
2015,05,22,02,50,16.40
2015,05,22,02,51,16.40
2015,05,22,02,52,16.40
2015,05,22,02,53,16.40
2015,05,22,02,54,16.50
2015,05,22,02,55,16.50
2015,05,22,02,56,16.50
2015,05,22,02,57,16.60
2015,05,22,02,58,16.60
2015,05,22,02,59,16.60
2015,05,22,03,00,16.60
2015,05,22,03,01,16.60
2015,05,22,03,02,16.60
2015,05,22,03,03,16.60
2015,05,22,03,04,16.60
2015,05,22,03,05,16.60
2015,05,22,03,06,16.70
2015,05,22,03,07,16.70
2015,05,22,03,08,16.70
2015,05,22,03,09,16.70
2015,05,22,03,10,16.70
2015,05,22,03,11,16.70
2015,05,22,03,12,16.70
2015,05,22,03,13,16.70
2015,05,22,03,14,16.70
2015,05,22,03,15,16.70
2015,05,22,03,16,16.60
2015,05,22,03,17,16.50
2015,05,22,03,18,16.40
2015,05,22,03,19,16.30
2015,05,22,03,20,16.20
2015,05,22,03,21,16.20
2015,05,22,03,22,16.10
2015,05,22,03,23,16.00
2015,05,22,03,24,15.90
2015,05,22,03,25,15.80
2015,05,22,03,26,15.80
2015,05,22,03,27,15.70
2015,05,22,03,28,15.70
2015,05,22,03,29,15.60
2015,05,22,03,30,15.60
2015,05,22,03,31,15.60
2015,05,22,03,32,15.50
2015,05,22,03,33,15.50
2015,05,22,03,34,15.40
2015,05,22,03,35,15.30
2015,05,22,03,36,15.30
2015,05,22,03,37,15.30
2015,05,22,03,38,15.20
2015,05,22,03,39,15.20
2015,05,22,03,40,15.20
2015,05,22,03,41,15.20
2015,05,22,03,42,15.10
2015,05,22,03,43,15.10
2015,05,22,03,44,15.10
2015,05,22,03,45,15.10
2015,05,22,03,46,15.10
2015,05,22,03,47,15.10
2015,05,22,03,48,15.10
2015,05,22,03,49,15.10
2015,05,22,03,50,15.20
2015,05,22,03,51,15.20
2015,05,22,03,52,15.20
2015,05,22,03,53,15.20
2015,05,22,03,54,15.20
2015,05,22,03,55,15.20
2015,05,22,03,56,15.20
2015,05,22,03,57,15.20
2015,05,22,03,58,15.20
2015,05,22,03,59,15.20
2015,05,22,04,00,15.20
2015,05,22,04,01,15.20
2015,05,22,04,02,15.20
2015,05,22,04,03,15.20
2015,05,22,04,04,15.20
2015,05,22,04,05,15.20
2015,05,22,04,06,15.30
2015,05,22,04,07,15.30
2015,05,22,04,08,15.30
2015,05,22,04,09,15.30
2015,05,22,04,10,15.20
2015,05,22,04,11,15.20
2015,05,22,04,12,15.20
2015,05,22,04,13,15.20
2015,05,22,04,14,15.20
2015,05,22,04,15,15.20
2015,05,22,04,16,15.20
2015,05,22,04,17,15.20
2015,05,22,04,18,15.20
2015,05,22,04,19,15.20
2015,05,22,04,20,15.20
2015,05,22,04,21,15.20
2015,05,22,04,22,15.20
2015,05,22,04,23,15.20
2015,05,22,04,24,15.20
2015,05,22,04,25,15.20
2015,05,22,04,26,15.20
2015,05,22,04,27,15.10
2015,05,22,04,28,15.10
2015,05,22,04,29,15.10
2015,05,22,04,30,15.10
2015,05,22,04,31,15.10
2015,05,22,04,32,15.10
2015,05,22,04,33,15.10
2015,05,22,04,34,15.10
2015,05,22,04,35,15.10
2015,05,22,04,36,15.10
2015,05,22,04,37,15.10
2015,05,22,04,38,15.10
2015,05,22,04,39,15.00
2015,05,22,04,40,15.00
2015,05,22,04,41,14.90
2015,05,22,04,42,14.90
2015,05,22,04,43,14.90
2015,05,22,04,44,14.90
2015,05,22,04,45,14.90
2015,05,22,04,46,14.80
2015,05,22,04,47,14.80
2015,05,22,04,48,14.80
2015,05,22,04,49,14.80
2015,05,22,04,50,14.80
2015,05,22,04,51,14.80
2015,05,22,04,52,14.80
2015,05,22,04,53,14.80
2015,05,22,04,54,14.70
2015,05,22,04,55,14.70
2015,05,22,04,56,14.70
2015,05,22,04,57,14.70
2015,05,22,04,58,14.70
2015,05,22,04,59,14.70
2015,05,22,05,00,14.70
2015,05,22,05,01,14.70
2015,05,22,05,02,14.70
2015,05,22,05,03,14.60
2015,05,22,05,04,14.60
2015,05,22,05,05,14.60
2015,05,22,05,06,14.60
2015,05,22,05,07,14.60
2015,05,22,05,08,14.60
2015,05,22,05,09,14.60
2015,05,22,05,10,14.60
2015,05,22,05,11,14.60
2015,05,22,05,12,14.50
2015,05,22,05,13,14.50
2015,05,22,05,14,14.50
2015,05,22,05,15,14.40
2015,05,22,05,16,14.40
2015,05,22,05,17,14.40
2015,05,22,05,18,14.40
2015,05,22,05,19,14.30
2015,05,22,05,20,14.40
2015,05,22,05,21,14.30
2015,05,22,05,22,14.30
2015,05,22,05,23,14.30
2015,05,22,05,24,14.30
2015,05,22,05,25,14.30
2015,05,22,05,26,14.30
2015,05,22,05,27,14.30
2015,05,22,05,28,14.30
2015,05,22,05,29,14.30
2015,05,22,05,30,14.30
2015,05,22,05,31,14.30
2015,05,22,05,32,14.30
2015,05,22,05,33,14.30
2015,05,22,05,34,14.30
2015,05,22,05,35,14.20
2015,05,22,05,36,14.20
2015,05,22,05,37,14.20
2015,05,22,05,38,14.20
2015,05,22,05,39,14.20
2015,05,22,05,40,14.10
2015,05,22,05,41,14.10
2015,05,22,05,42,14.10
2015,05,22,05,43,14.10
2015,05,22,05,44,14.10
2015,05,22,05,45,14.10
2015,05,22,05,46,14.00
2015,05,22,05,47,14.00
2015,05,22,05,48,14.00
2015,05,22,05,49,14.00
2015,05,22,05,50,14.00
2015,05,22,05,51,13.90
2015,05,22,05,52,13.90
2015,05,22,05,53,13.90
2015,05,22,05,54,13.90
2015,05,22,05,55,13.90
2015,05,22,05,56,13.90
2015,05,22,05,57,13.90
2015,05,22,05,58,13.90
2015,05,22,05,59,13.90
2015,05,22,06,00,13.90
2015,05,22,06,01,13.90
2015,05,22,06,02,13.90
2015,05,22,06,03,13.90
2015,05,22,06,04,13.80
2015,05,22,06,05,13.80
2015,05,22,06,06,13.80
2015,05,22,06,07,13.80
2015,05,22,06,08,13.80
2015,05,22,06,09,13.80
2015,05,22,06,10,13.80
2015,05,22,06,11,13.80
2015,05,22,06,12,13.80
2015,05,22,06,13,13.80
2015,05,22,06,14,13.80
2015,05,22,06,15,13.80
2015,05,22,06,16,13.80
2015,05,22,06,17,13.80
2015,05,22,06,18,13.80
2015,05,22,06,19,13.80
2015,05,22,06,20,13.80
2015,05,22,06,21,13.80
2015,05,22,06,22,13.80
2015,05,22,06,23,13.80
2015,05,22,06,24,13.90
2015,05,22,06,25,13.90
2015,05,22,06,26,13.90
2015,05,22,06,27,13.90
2015,05,22,06,28,13.90
2015,05,22,06,29,13.90
2015,05,22,06,30,13.90
2015,05,22,06,31,13.90
2015,05,22,06,32,13.90
2015,05,22,06,33,13.90
2015,05,22,06,34,13.90
2015,05,22,06,35,14.00
2015,05,22,06,36,14.00
2015,05,22,06,37,14.00
2015,05,22,06,38,14.00
2015,05,22,06,39,14.00
2015,05,22,06,40,14.00
2015,05,22,06,41,14.00
2015,05,22,06,42,14.00
2015,05,22,06,43,14.00
2015,05,22,06,44,14.00
2015,05,22,06,45,14.00
2015,05,22,06,46,14.00
2015,05,22,06,47,14.10
2015,05,22,06,48,14.10
2015,05,22,06,49,14.10
2015,05,22,06,50,14.10
2015,05,22,06,51,14.10
2015,05,22,06,52,14.10
2015,05,22,06,53,14.10
2015,05,22,06,54,14.20
2015,05,22,06,55,14.20
2015,05,22,06,56,14.20
2015,05,22,06,57,14.20
2015,05,22,06,58,14.20
2015,05,22,06,59,14.30
2015,05,22,07,00,14.30
2015,05,22,07,01,14.30
2015,05,22,07,02,14.30
2015,05,22,07,03,14.30
2015,05,22,07,04,14.30
2015,05,22,07,05,14.30
2015,05,22,07,06,14.40
2015,05,22,07,07,14.40
2015,05,22,07,08,14.40
2015,05,22,07,09,14.40
2015,05,22,07,10,14.40
2015,05,22,07,11,14.40
2015,05,22,07,12,14.40
2015,05,22,07,13,14.50
2015,05,22,07,14,14.50
2015,05,22,07,15,14.50
2015,05,22,07,16,14.50
2015,05,22,07,17,14.50
2015,05,22,07,18,14.50
2015,05,22,07,19,14.50
2015,05,22,07,20,14.40
2015,05,22,07,21,14.40
2015,05,22,07,22,14.40
2015,05,22,07,23,14.40
2015,05,22,07,24,14.40
2015,05,22,07,25,14.40
2015,05,22,07,26,14.40
2015,05,22,07,27,14.40
2015,05,22,07,28,14.40
2015,05,22,07,29,14.40
2015,05,22,07,30,14.40
2015,05,22,07,31,14.50
2015,05,22,07,32,14.50
2015,05,22,07,33,14.50
2015,05,22,07,34,14.60
2015,05,22,07,35,14.60
2015,05,22,07,36,14.60
2015,05,22,07,37,14.70
2015,05,22,07,38,14.80
2015,05,22,07,39,14.80
2015,05,22,07,40,14.80
2015,05,22,07,41,14.90
2015,05,22,07,42,14.90
2015,05,22,07,43,15.00
2015,05,22,07,44,15.10
2015,05,22,07,45,15.10
2015,05,22,07,46,15.20
2015,05,22,07,47,15.20
2015,05,22,07,48,15.20
2015,05,22,07,49,15.20
2015,05,22,07,50,15.20
2015,05,22,07,51,15.20
2015,05,22,07,52,15.20
2015,05,22,07,53,15.10
2015,05,22,07,54,15.10
2015,05,22,07,55,15.20
2015,05,22,07,56,15.20
2015,05,22,07,57,15.20
2015,05,22,07,58,15.20
2015,05,22,07,59,15.20
2015,05,22,08,00,15.20
2015,05,22,08,01,15.30
2015,05,22,08,02,15.30
2015,05,22,08,03,15.30
2015,05,22,08,04,15.40
2015,05,22,08,05,15.40
2015,05,22,08,06,15.50
2015,05,22,08,07,15.50
2015,05,22,08,08,15.60
2015,05,22,08,09,15.60
2015,05,22,08,10,15.70
2015,05,22,08,11,15.80
2015,05,22,08,12,15.80
2015,05,22,08,13,15.90
2015,05,22,08,14,15.90
2015,05,22,08,15,16.00
2015,05,22,08,16,16.00
2015,05,22,08,17,16.00
2015,05,22,08,18,16.00
2015,05,22,08,19,16.00
2015,05,22,08,20,16.10
2015,05,22,08,21,16.10
2015,05,22,08,22,16.20
2015,05,22,08,23,16.30
2015,05,22,08,24,16.30
2015,05,22,08,25,16.30
2015,05,22,08,26,16.40
2015,05,22,08,27,16.40
2015,05,22,08,28,16.30
2015,05,22,08,29,16.40
2015,05,22,08,30,16.40
2015,05,22,08,31,16.40
2015,05,22,08,32,16.50
2015,05,22,08,33,16.60
2015,05,22,08,34,16.60
2015,05,22,08,35,16.60
2015,05,22,08,36,16.70
2015,05,22,08,37,16.70
2015,05,22,08,38,16.80
2015,05,22,08,39,16.80
2015,05,22,08,40,16.80
2015,05,22,08,41,16.80
2015,05,22,08,42,16.80
2015,05,22,08,43,16.80
2015,05,22,08,44,16.90
2015,05,22,08,45,16.90
2015,05,22,08,46,16.90
2015,05,22,08,47,17.00
2015,05,22,08,48,17.00
2015,05,22,08,49,17.10
2015,05,22,08,50,17.10
2015,05,22,08,51,17.20
2015,05,22,08,52,17.20
2015,05,22,08,53,17.30
2015,05,22,08,54,17.40
2015,05,22,08,55,17.50
2015,05,22,08,56,17.60
2015,05,22,08,57,17.70
2015,05,22,08,58,17.60
2015,05,22,08,59,17.50
2015,05,22,09,00,17.50
2015,05,22,09,01,17.40
2015,05,22,09,02,17.30
2015,05,22,09,03,17.30
2015,05,22,09,04,17.20
2015,05,22,09,05,17.20
2015,05,22,09,06,17.10
2015,05,22,09,07,17.00
2015,05,22,09,08,17.00
2015,05,22,09,09,16.90
2015,05,22,09,10,16.90
2015,05,22,09,11,16.90
2015,05,22,09,12,16.90
2015,05,22,09,13,16.90
2015,05,22,09,14,17.00
2015,05,22,09,15,17.00
2015,05,22,09,16,17.00
2015,05,22,09,17,17.10
2015,05,22,09,18,17.20
2015,05,22,09,19,17.30
2015,05,22,09,20,17.30
2015,05,22,09,21,17.30
2015,05,22,09,22,17.30
2015,05,22,09,23,17.20
2015,05,22,09,24,17.20
2015,05,22,09,25,17.20
2015,05,22,09,26,17.20
2015,05,22,09,27,17.20
2015,05,22,09,28,17.30
2015,05,22,09,29,17.30
2015,05,22,09,30,17.30
2015,05,22,09,31,17.30
2015,05,22,09,32,17.30
2015,05,22,09,33,17.30
2015,05,22,09,34,17.30
2015,05,22,09,35,17.30
2015,05,22,09,36,17.30
2015,05,22,09,37,17.30
2015,05,22,09,38,17.20
2015,05,22,09,39,17.20
2015,05,22,09,40,17.20
2015,05,22,09,41,17.20
2015,05,22,09,42,17.20
2015,05,22,09,43,17.10
2015,05,22,09,44,17.00
2015,05,22,09,45,16.90
2015,05,22,09,46,16.80
2015,05,22,09,47,16.80
2015,05,22,09,48,16.80
2015,05,22,09,49,16.70
2015,05,22,09,50,16.70
2015,05,22,09,51,16.70
2015,05,22,09,52,16.80
2015,05,22,09,53,16.80
2015,05,22,09,54,16.90
2015,05,22,09,55,17.10
2015,05,22,09,56,17.20
2015,05,22,09,57,17.20
2015,05,22,09,58,17.30
2015,05,22,09,59,17.40
2015,05,22,10,00,17.50
2015,05,22,10,01,17.60
2015,05,22,10,02,17.50
2015,05,22,10,03,17.50
2015,05,22,10,04,17.40
2015,05,22,10,05,17.50
2015,05,22,10,06,17.50
2015,05,22,10,07,17.60
2015,05,22,10,08,17.70
2015,05,22,10,09,17.70
2015,05,22,10,10,17.70
2015,05,22,10,11,17.70
2015,05,22,10,12,17.70
2015,05,22,10,13,17.70
2015,05,22,10,14,17.80
2015,05,22,10,15,17.80
2015,05,22,10,16,17.80
2015,05,22,10,17,17.80
2015,05,22,10,18,17.80
2015,05,22,10,19,17.80
2015,05,22,10,20,17.80
2015,05,22,10,21,17.80
2015,05,22,10,22,17.80
2015,05,22,10,23,17.80
2015,05,22,10,24,17.80
2015,05,22,10,25,17.80
2015,05,22,10,26,17.80
2015,05,22,10,27,17.80
2015,05,22,10,28,17.70
2015,05,22,10,29,17.80
2015,05,22,10,30,17.80
2015,05,22,10,31,17.90
2015,05,22,10,32,18.00
2015,05,22,10,33,18.00
2015,05,22,10,34,18.10
2015,05,22,10,35,18.20
2015,05,22,10,36,18.10
2015,05,22,10,37,18.10
2015,05,22,10,38,18.10
2015,05,22,10,39,18.10
2015,05,22,10,40,18.10
2015,05,22,10,41,18.10
2015,05,22,10,42,18.10
2015,05,22,10,43,18.20
2015,05,22,10,44,18.20
2015,05,22,10,45,18.20
2015,05,22,10,46,18.30
2015,05,22,10,47,18.30
2015,05,22,10,48,18.30
2015,05,22,10,49,18.30
2015,05,22,10,50,18.30
2015,05,22,10,51,18.30
2015,05,22,10,52,18.30
2015,05,22,10,53,18.30
2015,05,22,10,54,18.30
2015,05,22,10,55,18.20
2015,05,22,10,56,18.20
2015,05,22,10,57,18.30
2015,05,22,10,58,18.30
2015,05,22,10,59,18.30
2015,05,22,11,00,18.30
2015,05,22,11,01,18.30
2015,05,22,11,02,18.30
2015,05,22,11,03,18.30
2015,05,22,11,04,18.20
2015,05,22,11,05,18.20
2015,05,22,11,06,18.20
2015,05,22,11,07,18.20
2015,05,22,11,08,18.20
2015,05,22,11,09,18.10
2015,05,22,11,10,18.10
2015,05,22,11,11,18.10
2015,05,22,11,12,18.20
2015,05,22,11,13,18.20
2015,05,22,11,14,18.30
2015,05,22,11,15,18.20
2015,05,22,11,16,18.20
2015,05,22,11,17,18.20
2015,05,22,11,18,18.10
2015,05,22,11,19,18.10
2015,05,22,11,20,18.10
2015,05,22,11,21,18.10
2015,05,22,11,22,18.20
2015,05,22,11,23,18.30
2015,05,22,11,24,18.30
2015,05,22,11,25,18.50
2015,05,22,11,26,18.70
2015,05,22,11,27,18.80
2015,05,22,11,28,18.80
2015,05,22,11,29,18.90
2015,05,22,11,30,18.90
2015,05,22,11,31,19.00
2015,05,22,11,32,19.00
2015,05,22,11,33,19.10
2015,05,22,11,34,19.10
2015,05,22,11,35,19.10
2015,05,22,11,36,19.00
2015,05,22,11,37,18.90
2015,05,22,11,38,18.70
2015,05,22,11,39,18.70
2015,05,22,11,40,18.70
2015,05,22,11,41,18.70
2015,05,22,11,42,18.70
2015,05,22,11,43,18.70
2015,05,22,11,44,18.70
2015,05,22,11,45,18.70
2015,05,22,11,46,18.80
2015,05,22,11,47,18.80
2015,05,22,11,48,18.80
2015,05,22,11,49,18.90
2015,05,22,11,50,19.00
2015,05,22,11,51,19.10
2015,05,22,11,52,19.20
2015,05,22,11,53,19.30
2015,05,22,11,54,19.40
2015,05,22,11,55,19.40
2015,05,22,11,56,19.40
2015,05,22,11,57,19.30
2015,05,22,11,58,19.20
2015,05,22,11,59,19.10
2015,05,22,12,00,19.00
2015,05,22,12,01,19.00
2015,05,22,12,02,19.10
2015,05,22,12,03,19.20
2015,05,22,12,04,19.20
2015,05,22,12,05,19.20
2015,05,22,12,06,19.20
2015,05,22,12,07,19.30
2015,05,22,12,08,19.30
2015,05,22,12,09,19.30
2015,05,22,12,10,19.30
2015,05,22,12,11,19.30
2015,05,22,12,12,19.30
2015,05,22,12,13,19.30
2015,05,22,12,14,19.20
2015,05,22,12,15,19.20
2015,05,22,12,16,19.20
2015,05,22,12,17,19.30
2015,05,22,12,18,19.40
2015,05,22,12,19,19.50
2015,05,22,12,20,19.50
2015,05,22,12,21,19.60
2015,05,22,12,22,19.60
2015,05,22,12,23,19.70
2015,05,22,12,24,19.80
2015,05,22,12,25,19.90
2015,05,22,12,26,20.00
2015,05,22,12,27,20.10
2015,05,22,12,28,20.10
2015,05,22,12,29,20.20
2015,05,22,12,30,20.20
2015,05,22,12,31,20.10
2015,05,22,12,32,19.90
2015,05,22,12,33,20.00
2015,05,22,12,34,20.00
2015,05,22,12,35,20.00
2015,05,22,12,36,20.00
2015,05,22,12,37,20.10
2015,05,22,12,38,20.20
2015,05,22,12,39,20.30
2015,05,22,12,40,20.40
2015,05,22,12,41,20.40
2015,05,22,12,42,20.40
2015,05,22,12,43,20.40
2015,05,22,12,44,20.40
2015,05,22,12,45,20.30
2015,05,22,12,46,20.20
2015,05,22,12,47,20.10
2015,05,22,12,48,20.00
2015,05,22,12,49,20.00
2015,05,22,12,50,19.90
2015,05,22,12,51,19.90
2015,05,22,12,52,19.80
2015,05,22,12,53,19.70
2015,05,22,12,54,19.60
2015,05,22,12,55,19.50
2015,05,22,12,56,19.40
2015,05,22,12,57,19.40
2015,05,22,12,58,19.40
2015,05,22,12,59,19.30
2015,05,22,13,00,19.30
2015,05,22,13,01,19.30
2015,05,22,13,02,19.30
2015,05,22,13,03,19.30
2015,05,22,13,04,19.40
2015,05,22,13,05,19.50
2015,05,22,13,06,19.60
2015,05,22,13,07,19.70
2015,05,22,13,08,19.80
2015,05,22,13,09,19.80
2015,05,22,13,10,19.80
2015,05,22,13,11,19.80
2015,05,22,13,12,19.80
2015,05,22,13,13,19.80
2015,05,22,13,14,19.80
2015,05,22,13,15,19.80
2015,05,22,13,16,19.90
2015,05,22,13,17,19.90
2015,05,22,13,18,19.90
2015,05,22,13,19,20.00
2015,05,22,13,20,20.10
2015,05,22,13,21,20.10
2015,05,22,13,22,20.10
2015,05,22,13,23,20.10
2015,05,22,13,24,20.10
2015,05,22,13,25,20.20
2015,05,22,13,26,20.30
2015,05,22,13,27,20.50
2015,05,22,13,28,20.50
2015,05,22,13,29,20.50
2015,05,22,13,30,20.40
2015,05,22,13,31,20.20
2015,05,22,13,32,20.20
2015,05,22,13,33,20.00
2015,05,22,13,34,19.90
2015,05,22,13,35,19.90
2015,05,22,13,36,19.90
2015,05,22,13,37,19.90
2015,05,22,13,38,19.90
2015,05,22,13,39,20.00
2015,05,22,13,40,20.00
2015,05,22,13,41,20.00
2015,05,22,13,42,20.10
2015,05,22,13,43,20.10
2015,05,22,13,44,20.00
2015,05,22,13,45,20.00
2015,05,22,13,46,20.10
2015,05,22,13,47,20.20
2015,05,22,13,48,20.30
2015,05,22,13,49,20.30
2015,05,22,13,50,20.40
2015,05,22,13,51,20.40
2015,05,22,13,52,20.50
2015,05,22,13,53,20.50
2015,05,22,13,54,20.50
2015,05,22,13,55,20.50
2015,05,22,13,56,20.50
2015,05,22,13,57,20.60
2015,05,22,13,58,20.60
2015,05,22,13,59,20.70
2015,05,22,14,00,20.80
2015,05,22,14,01,20.90
2015,05,22,14,02,20.80
2015,05,22,14,03,20.90
2015,05,22,14,04,20.90
2015,05,22,14,05,20.90
2015,05,22,14,06,20.80
2015,05,22,14,07,20.80
2015,05,22,14,08,20.80
2015,05,22,14,09,20.90
2015,05,22,14,10,21.00
2015,05,22,14,11,21.10
2015,05,22,14,12,21.30
2015,05,22,14,13,21.30
2015,05,22,14,14,21.40
2015,05,22,14,15,21.40
2015,05,22,14,16,21.40
2015,05,22,14,17,21.50
2015,05,22,14,18,21.60
2015,05,22,14,19,21.70
2015,05,22,14,20,21.70
2015,05,22,14,21,21.70
2015,05,22,14,22,21.60
2015,05,22,14,23,21.50
2015,05,22,14,24,21.40
2015,05,22,14,25,21.30
2015,05,22,14,26,21.30
2015,05,22,14,27,21.30
2015,05,22,14,28,21.20
2015,05,22,14,29,21.20
2015,05,22,14,30,21.20
2015,05,22,14,31,21.20
2015,05,22,14,32,21.20
2015,05,22,14,33,21.20
2015,05,22,14,34,21.20
2015,05,22,14,35,21.10
2015,05,22,14,36,21.10
2015,05,22,14,37,21.00
2015,05,22,14,38,20.90
2015,05,22,14,39,20.90
2015,05,22,14,40,20.90
2015,05,22,14,41,20.90
2015,05,22,14,42,20.90
2015,05,22,14,43,20.90
2015,05,22,14,44,21.00
2015,05,22,14,45,21.10
2015,05,22,14,46,21.20
2015,05,22,14,47,21.30
2015,05,22,14,48,21.30
2015,05,22,14,49,21.30
2015,05,22,14,50,21.30
2015,05,22,14,51,21.20
2015,05,22,14,52,21.20
2015,05,22,14,53,21.20
2015,05,22,14,54,21.20
2015,05,22,14,55,21.20
2015,05,22,14,56,21.10
2015,05,22,14,57,21.10
2015,05,22,14,58,21.00
2015,05,22,14,59,21.00
2015,05,22,15,00,21.00
2015,05,22,15,01,21.10
2015,05,22,15,02,21.10
2015,05,22,15,03,21.10
2015,05,22,15,04,21.10
2015,05,22,15,05,21.10
2015,05,22,15,06,21.20
2015,05,22,15,07,21.20
2015,05,22,15,08,21.20
2015,05,22,15,09,21.20
2015,05,22,15,10,21.20
2015,05,22,15,11,21.20
2015,05,22,15,12,21.20
2015,05,22,15,13,21.20
2015,05,22,15,14,21.20
2015,05,22,15,15,21.30
2015,05,22,15,16,21.30
2015,05,22,15,17,21.40
2015,05,22,15,18,21.30
2015,05,22,15,19,21.30
2015,05,22,15,20,21.30
2015,05,22,15,21,21.30
2015,05,22,15,22,21.30
2015,05,22,15,23,21.40
2015,05,22,15,24,21.50
2015,05,22,15,25,21.50
2015,05,22,15,26,21.60
2015,05,22,15,27,21.70
2015,05,22,15,28,21.70
2015,05,22,15,29,21.80
2015,05,22,15,30,21.80
2015,05,22,15,31,21.90
2015,05,22,15,32,21.90
2015,05,22,15,33,21.90
2015,05,22,15,34,22.00
2015,05,22,15,35,21.90
2015,05,22,15,36,21.90
2015,05,22,15,37,22.00
2015,05,22,15,38,22.00
2015,05,22,15,39,22.00
2015,05,22,15,40,22.00
2015,05,22,15,41,21.90
2015,05,22,15,42,21.90
2015,05,22,15,43,22.00
2015,05,22,15,44,22.00
2015,05,22,15,45,22.00
2015,05,22,15,46,22.00
2015,05,22,15,47,22.00
2015,05,22,15,48,21.90
2015,05,22,15,49,21.80
2015,05,22,15,50,21.80
2015,05,22,15,51,21.70
2015,05,22,15,52,21.70
2015,05,22,15,53,21.70
2015,05,22,15,54,21.80
2015,05,22,15,55,21.80
2015,05,22,15,56,21.90
2015,05,22,15,57,21.90
2015,05,22,15,58,21.90
2015,05,22,15,59,21.90
2015,05,22,16,00,21.90
2015,05,22,16,01,21.90
2015,05,22,16,02,21.80
2015,05,22,16,03,21.80
2015,05,22,16,04,21.80
2015,05,22,16,05,21.90
2015,05,22,16,06,21.90
2015,05,22,16,07,22.00
2015,05,22,16,08,22.00
2015,05,22,16,09,21.90
2015,05,22,16,10,21.80
2015,05,22,16,11,21.70
2015,05,22,16,12,21.60
2015,05,22,16,13,21.70
2015,05,22,16,14,21.70
2015,05,22,16,15,21.80
2015,05,22,16,16,21.80
2015,05,22,16,17,21.90
2015,05,22,16,18,22.00
2015,05,22,16,19,22.00
2015,05,22,16,20,22.00
2015,05,22,16,21,22.00
2015,05,22,16,22,22.00
2015,05,22,16,23,21.70
2015,05,22,16,24,21.60
2015,05,22,16,25,21.60
2015,05,22,16,26,21.60
2015,05,22,16,27,21.60
2015,05,22,16,28,21.60
2015,05,22,16,29,21.50
2015,05,22,16,30,21.50
2015,05,22,16,31,21.40
2015,05,22,16,32,21.50
2015,05,22,16,33,21.50
2015,05,22,16,34,21.60
2015,05,22,16,35,21.60
2015,05,22,16,36,21.70
2015,05,22,16,37,21.70
2015,05,22,16,38,21.70
2015,05,22,16,39,21.70
2015,05,22,16,40,21.70
2015,05,22,16,41,21.70
2015,05,22,16,42,21.60
2015,05,22,16,43,21.60
2015,05,22,16,44,21.60
2015,05,22,16,45,21.70
2015,05,22,16,46,21.70
2015,05,22,16,47,21.70
2015,05,22,16,48,21.60
2015,05,22,16,49,21.50
2015,05,22,16,50,21.40
2015,05,22,16,51,21.40
2015,05,22,16,52,21.30
2015,05,22,16,53,21.30
2015,05,22,16,54,21.20
2015,05,22,16,55,21.20
2015,05,22,16,56,21.20
2015,05,22,16,57,21.20
2015,05,22,16,58,21.30
2015,05,22,16,59,21.30
2015,05,22,17,00,21.40
2015,05,22,17,01,21.40
2015,05,22,17,02,21.40
2015,05,22,17,03,21.40
2015,05,22,17,04,21.40
2015,05,22,17,05,21.40
2015,05,22,17,06,21.40
2015,05,22,17,07,21.30
2015,05,22,17,08,21.20
2015,05,22,17,09,21.20
2015,05,22,17,10,21.20
2015,05,22,17,11,21.10
2015,05,22,17,12,21.10
2015,05,22,17,13,21.10
2015,05,22,17,14,21.10
2015,05,22,17,15,21.10
2015,05,22,17,16,21.00
2015,05,22,17,17,21.00
2015,05,22,17,18,20.90
2015,05,22,17,19,20.80